Regional Weather Roundup
Issued by NWS Albany, NY

Home | Current Version | Previous Version | Text Only | Print | Product List | Glossary On
Versions: 1 2 3 4 5 6 7 8 9 10 11 12 13 14 15 16 17 18 19 20 21 22 23 24 25 26 27 28 29 30 31 32 33 34 35 36 37 38 39 40 41 42 43 44 45 46 47 48 49 50
000
ASUS41 KALY 300510
RWRALY

NEW YORK STATE HOURLY WEATHER ROUNDUP
NATIONAL WEATHER SERVICE ALBANY NY
100 AM EDT SAT JUL 30 2016

NOTE: "FAIR" INDICATES FEW OR NO CLOUDS BELOW 12,000 FEET WITH NO
SIGNIFICANT WEATHER AND/OR NO OBSTRUCTIONS TO VISIBILITY.

NYZ032-033-038>043-046>054-057>066-NYZ062>081-082-084-300600-
EAST


CITY           SKY/WX    TMP DP  RH WIND       PRES   REMARKS
ALBANY         PTCLDY    69  58  67 N3        29.97S
GLENS FALLS    CLEAR     64  58  80 NW3       29.98S
POUGHKEEPSIE   CLEAR     72  67  84 CALM      29.94R
NEWBURGH       CLEAR     70  70 100 CALM      29.97R
MONTGOMERY     FOG       69  68  96 CALM      29.95R VSB 3/4
WHITE PLAINS   CLEAR     71  68  90 CALM      29.94S
ISLIP          PTCLDY    73  70  90 SW6       29.93S
NEW YORK CITY  PTCLDY    78  69  73 S10       29.92S
CENTRAL PARK   PTCLDY    77  69  76 CALM      29.96R
$$

NYZ005>009-017-018-044>046-055-056-300600-
CENTRAL


CITY           SKY/WX    TMP DP  RH WIND       PRES   REMARKS
FULTON         CLEAR     67  56  67 NE7       30.01R
SYRACUSE       PTCLDY    65  59  81 CALM      30.00R
ROME           CLEAR     65  57  75 E5        30.01R
ELMIRA         PTCLDY    65  57  75 NW3       30.00R
BINGHAMTON     CLEAR     67  54  63 N7        30.02R
MONTICELLO     CLEAR     64  63  94 E5        30.01F
$$

NYZ026>034-041>043-087-300600-
NORTH


CITY           SKY/WX    TMP DP  RH WIND       PRES   REMARKS
WATERTOWN      CLEAR     61  53  75 E3        30.03R
FORT DRUM      NOT AVBL
MASSENA        CLEAR     61  54  77 N5        30.03S
SARANAC LAKE   CLEAR     50  48  93 CALM      30.04S
PLATTSBURGH    PTCLDY    65  58  78 NW5       30.00S
$$

NYZ001>004-010>016-019>021-085-300600-
WEST


CITY           SKY/WX    TMP DP  RH WIND       PRES   REMARKS
NIAGARA FALLS  CLEAR     70  61  73 E3        29.99S
BUFFALO        MOCLDY    69  60  73 NE5       29.99S
DUNKIRK        CLEAR     70  62  76 E5        29.98F
JAMESTOWN      CLEAR     66  61  82 E7        30.02S
WELLSVILLE     CLOUDY    66  59  78 CALM      30.07S
ROCHESTER      CLEAR     71  64  78 NE6       30.01S
PENN YAN       PTCLDY    61  56  83 CALM      30.02S
$$

             KEY
       WCI = WIND CHILL INDEX
       VSB = VISIBILITY
       HX  = HEAT INDEX
$$



USA.gov is the U.S. government's official web portal to all federal, state and local government web resources and services.